Weather History for Spencer, IA

Change the Weather History Date:

Thursday, February 28, 2013

  Actual Average Record
Temperature  
Mean Temperature 24 °F -  
Max Temperature 28 °F 37 °F 56 °F (1985)
Min Temperature 19 °F 20 °F -12 °F (1993)
Degree Days  
Heating Degree Days 42    
Moisture  
Dew Point 20 °F    
Average Humidity 83    
Maximum Humidity 93    
Minimum Humidity 75    
Precipitation  
Precipitation 0.00 in - - ()
Sea Level Pressure  
Sea Level Pressure 30.19 in    
Wind  
Wind Speed 13 mph (NNW)    
Max Wind Speed 20 mph    
Max Gust Speed 24 mph    
Visibility 9 miles    
Events Snow    
Averages and records for this station are not official NWS values.
T = Trace of Precipitation, MM = Missing Value Source: NWS Daily Summary

Daily Weather History Graph

Daily Weather History Graph

Search for Another Location

Airport:

Trip Planner

Search our weather history database for the weather conditions in past years. The results will help you decide how hot, cold, wet, or windy it might be!

Date:

Astronomy

Feb. 28, 2013 Rise Set
Actual Time 6:58 AM CST 6:09 PM CST
Civil Twilight 6:29 AM CST 6:37 PM CST
Nautical Twilight 5:56 AM CST 7:10 PM CST
Astronomical Twilight 5:23 AM CST 7:43 PM CST
Moon 9:44 PM CST 8:01 AM CST
Length of Visible Light 12h 08m
Length of Day
11h 11m
Waning Gibbous, 90% of the Moon is Illuminated
Feb 28
Waning Gibbous
Mar 4
Last Quarter
Mar 11
New
Mar 19
First Quarter
Mar 27
Full

Hourly Weather History & Observations

Time (CST) Temp. Windchill Dew Point Humidity Pressure Visibility Wind Dir Wind Speed Gust Speed Precip Events Conditions
12:53 AM 24.1 °F 9.8 °F 19.9 °F 84% 30.11 in 9.0 mi North 19.6 mph 24.2 mph N/A   Overcast
1:53 AM 21.9 °F 9.8 °F 18.0 °F 85% 30.12 in 8.0 mi North 12.7 mph - N/A   Scattered Clouds
3:20 AM 19.4 °F 8.6 °F 15.8 °F 86% 30.07 in 7.0 mi WNW 9.2 mph - N/A   Scattered Clouds
3:29 AM 19.4 °F 9.5 °F 15.8 °F 86% 30.08 in 7.0 mi NW 8.1 mph - N/A   Mostly Cloudy
3:53 AM 21.0 °F 8.1 °F 18.0 °F 88% 30.14 in 7.0 mi NNW 13.8 mph - N/A   Overcast
4:53 AM 21.9 °F 11.0 °F 19.0 °F 89% 30.16 in 7.0 mi NW 10.4 mph - N/A   Overcast
5:02 AM 21.2 °F 9.5 °F 19.4 °F 93% 30.10 in 7.0 mi NNW 11.5 mph - N/A   Overcast
5:39 AM 21.2 °F 9.5 °F 19.4 °F 93% 30.10 in 8.0 mi NNW 11.5 mph - N/A   Overcast
5:53 AM 21.9 °F 9.8 °F 19.0 °F 89% 30.17 in 8.0 mi NNW 12.7 mph - N/A   Overcast
6:53 AM 21.9 °F 10.4 °F 19.0 °F 89% 30.18 in 8.0 mi NNW 11.5 mph - N/A   Overcast
7:53 AM 23.0 °F 12.4 °F 19.0 °F 85% 30.19 in 8.0 mi NW 10.4 mph - N/A   Overcast
8:53 AM 24.1 °F 14.4 °F 19.0 °F 81% 30.21 in 8.0 mi NW 9.2 mph - N/A   Overcast
9:53 AM 25.0 °F 14.2 °F 19.0 °F 78% 30.22 in 10.0 mi NNW 11.5 mph - N/A   Overcast
10:53 AM 27.0 °F 17.3 °F 21.0 °F 78% 30.22 in 10.0 mi NNW 10.4 mph - N/A   Overcast
11:53 AM 28.0 °F 18.6 °F 21.0 °F 75% 30.23 in 10.0 mi NNW 10.4 mph - N/A   Overcast
12:53 PM 28.0 °F 17.5 °F 21.0 °F 75% 30.22 in 10.0 mi NW 12.7 mph - N/A   Overcast
1:53 PM 28.0 °F 17.5 °F 21.9 °F 78% 30.21 in 10.0 mi NNW 12.7 mph - N/A   Overcast
3:53 PM 27.0 °F 15.2 °F 21.0 °F 78% 30.22 in 10.0 mi NNW 15.0 mph - N/A   Overcast
4:36 PM 26.6 °F 16.2 °F 21.2 °F 80% 30.15 in 10.0 mi NNW 11.5 mph - N/A   Overcast
4:53 PM 27.0 °F 15.6 °F 21.0 °F 78% 30.22 in 10.0 mi North 13.8 mph - N/A   Overcast
5:53 PM 26.1 °F 15.0 °F 21.0 °F 81% 30.23 in 10.0 mi NNW 12.7 mph - N/A   Overcast
6:53 PM 26.1 °F 17.6 °F 21.0 °F 81% 30.25 in 10.0 mi NNW 8.1 mph - N/A   Overcast
7:53 PM 25.0 °F 15.5 °F 21.0 °F 85% 30.25 in 10.0 mi NNW 9.2 mph - N/A   Overcast
8:53 PM 25.0 °F 14.2 °F 21.0 °F 85% 30.25 in 10.0 mi NNW 11.5 mph - N/A   Overcast
9:53 PM 25.0 °F 15.5 °F 19.9 °F 81% 30.25 in 9.0 mi NNW 9.2 mph - N/A   Overcast
10:33 PM 24.8 °F 14.6 °F 19.4 °F 80% 30.19 in 7.0 mi NNW 10.4 mph - 0.00 in   Overcast
10:53 PM 24.1 °F 13.7 °F 19.9 °F 84% 30.25 in 8.0 mi North 10.4 mph - 0.00 in Snow Light Snow
11:53 PM 24.1 °F 14.4 °F 19.9 °F 84% 30.24 in 8.0 mi North 9.2 mph - 0.00 in   Overcast